Location: Pinhey's Point
(45.4411°N, 75.9539°W)
Time: 01:35:33
(UTC-04:00)

Daily predictions for brighter satellites

Satellite Brightness Start Highest point End
(mag) Time Altitude Azimuth Time Altitude Azimuth Time Altitude Azimuth
Cosmos 2227 Rocket 4.5 02:23:32 20° NNE 02:23:32 20° NNE 02:25:08 10° NNE
CZ-4C R/B 4.2 02:37:48 26° NNE 02:37:48 26° NNE 02:40:29 10° NE
CZ-2D R/B 4.3 02:40:06 10° NNE 02:42:03 20° NE 02:42:03 20° NE
Cosmos 2297 Rocket 4.1 03:05:07 24° N 03:05:07 24° N 03:07:29 10° NNE
SL-16 R/B 3.9 03:08:19 30° N 03:08:19 30° N 03:11:17 10° NNW
Resurs 1-4 Rocket 3.3 03:37:15 10° NNE 03:40:26 37° N 03:40:26 37° N
Cosmos 2279 Rocket 4.1 03:50:36 68° N 03:50:36 68° N 03:55:57 10° N
BREEZE-M DEB (TANK) 4.1 03:55:07 62° NNW 03:55:26 63° N 03:58:59 10° E
ADEOS 4.2 03:52:04 10° NNE 03:55:56 51° NNE 03:55:56 51° NNE
ADEOS Rocket 4.5 03:53:37 10° N 03:57:36 27° NW 03:57:36 27° NW
Cosmos 2227 Rocket 4.3 04:05:21 15° NNW 04:05:21 15° NNW 04:07:52 10° N
Cosmos 2263 Rocket 2.4 04:08:41 63° SE 04:09:03 65° ESE 04:14:43 10° NNE
Cosmos 1975 4.1 04:09:09 10° N 04:12:42 41° ENE 04:12:42 41° ENE
Lacrosse 5 rocket 3.7 04:14:32 15° N 04:14:32 15° N 04:16:38 10° NNE
ARIANE 5 R/B 3.5 04:11:19 10° N 04:14:37 36° NNW 04:14:37 36° NNW
Okean 1 4.3 04:20:51 46° ENE 04:20:51 46° ENE 04:24:13 10° NNE
Cosmos 220 Rocket 4.4 04:24:40 60° NE 04:24:40 60° NE 04:28:21 10° NNE
CZ-4C R/B 3.9 04:22:58 21° NW 04:24:08 22° NNW 04:29:01 10° NNE
CZ-2D R/B 3.3 04:20:10 10° N 04:23:22 29° NNW 04:23:22 29° NNW
ATLAS 5 CENTAUR R/B 4.0 04:21:17 10° NNW 04:26:25 32° NE 04:31:58 10° E
ATLAS 3B R/B 3.8 04:21:56 20° S 04:26:30 42° ESE 04:33:08 10° NE
Cosmos 1570 Rocket 4.1 04:24:18 10° NNW 04:35:53 - SSE 04:28:50 64° NW
Atlas Centaur 2 4.0 04:33:33 19° S 04:33:33 19° S 04:36:48 10° SE
SL-24 DEB 4.2 04:28:47 10° N 04:33:37 85° E 04:34:11 69° S
ASTEX 1 3.3 04:29:31 10° N 04:34:30 84° E 04:35:32 57° S
Cosmos 2208 Rocket 3.8 04:34:23 10° NNW 04:39:40 70° WSW 04:44:51 10° S
CZ-3 R/B 4.3 04:33:13 23° SW 04:42:39 31° S 04:50:41 10° SE
Cosmos 2297 Rocket 4.5 04:47:20 10° NW 04:47:46 10° NNW 04:48:14 10° NNW
Okean O Rocket 2.7 04:45:32 10° NNE 04:49:40 42° E 04:53:48 10° S
Cosmos 1932 4.5 04:47:39 44° SW 04:49:56 77° NW 04:56:32 10° NNE
Nadezhda 2 Rocket 4.5 04:45:41 10° N 04:52:06 87° E 04:58:21 10° S
CZ-4B R/B 4.4 04:47:13 10° NNE 04:52:13 40° E 04:57:13 10° SSE
CZ-4B R/B 3.4 04:49:10 10° NNE 04:53:11 57° E 04:55:05 27° SSE
Cosmos 2266 Rocket 4.1 04:52:34 10° NNW 04:58:45 52° W 05:03:06 20° SSW
Meteor 1-12 Rocket 4.3 04:53:22 10° NNW 04:59:23 70° W 05:05:20 10° S
ADEOS II 2.0 04:56:33 10° NNE 05:01:51 80° WNW 05:05:00 25° SSW
USA 215 4.2 04:58:37 10° E 05:04:44 44° NNE 05:10:51 10° NW
DELTA 2 R/B (1) 4.1 05:03:49 35° SW 05:04:53 39° SSW 05:10:01 10° SE
TELKOM 3 4.4 05:09:51 38° ENE 05:09:51 38° ENE 05:11:18 10° ENE
Cosmos 1607 4.2 05:07:23 34° WSW 05:09:52 52° NW 05:16:08 10° NNE
MOS 1-B 4.3 05:08:19 10° N 05:14:05 67° WNW 05:18:24 18° SSW
Cosmos 332 Rocket 4.0 05:09:48 10° NNW 05:14:21 43° WSW 05:18:52 10° S
PSLV R/B 3.4 05:11:40 10° N 05:15:53 82° WNW 05:18:48 19° SSW
Meteor 1-19 Rocket 4.3 05:11:07 10° S 05:16:59 83° E 05:22:47 10° NNE
Intercosmos 25 Rocket 2.9 05:16:07 34° SSW 05:17:29 67° W 05:20:39 10° N
Cosmos 371 Rocket 3.4 05:13:25 10° NNW 05:18:06 48° WSW 05:22:44 10° S
CZ-2C R/B 4.4 05:14:17 10° SSE 05:18:54 58° ENE 05:23:36 10° N
Resurs 1-4 Rocket 4.0 05:19:14 10° NNW 05:21:30 13° NW 05:21:30 13° NW
Cosmos 841 Rocket 3.7 05:19:01 10° NNW 05:24:14 74° ENE 05:29:26 10° SSE
Cosmos 1544 Rocket 3.8 05:20:35 10° NNW 05:24:42 43° W 05:28:49 10° SSW
Cosmos 1244 Rocket 4.5 05:18:52 10° NNW 05:25:12 69° W 05:31:29 10° S
Cosmos 468 Rocket 4.2 05:21:32 10° NNW 05:26:39 48° WSW 05:31:43 10° S
COSMOS 2406 3.3 05:22:13 10° NNW 05:28:01 82° ENE 05:33:49 10° SSE
Cosmos 1975 Rocket 4.1 05:29:11 25° WNW 05:29:26 25° WNW 05:33:06 10° NNW
Cosmos 2278 Rocket 4.4 05:26:35 10° SSE 05:31:08 26° ESE 05:35:44 10° NE
Cosmos 1455 Rocket 3.4 05:28:05 10° NNW 05:32:09 40° W 05:36:10 10° SSW
SL-8 R/B 3.8 05:30:44 26° W 05:33:25 68° N 05:38:13 10° ENE
CZ-4B DEB 4.1 05:29:07 10° NNE 05:34:36 82° WNW 05:40:03 10° SSW
Abrixas rocket 2.8 05:34:19 27° WNW 05:35:43 47° N 05:38:53 10° ENE
Cosmos 1666 2.9 05:32:31 10° NNW 05:36:08 44° W 05:39:46 10° SSW
Cosmos 1486 Rocket 4.2 05:33:15 10° SSW 05:38:29 76° ESE 05:43:43 10° NNE
EO 1 Del DPAF 4.0 05:36:19 10° SSE 05:40:03 55° ENE 05:43:49 10° N
Landsat 4 3.6 05:36:43 10° S 05:40:31 72° WSW 05:44:21 10° NNW
Cosmos 1763 Rocket 3.5 05:37:05 10° NNW 05:42:19 61° WSW 05:47:33 10° S
Lacrosse 4 Rocket 3.6 05:39:07 10° NNW 05:42:53 28° NE 05:46:32 10° ESE
USA 238 DEB 3.7 05:36:36 11° SW 05:43:17 85° NW 05:50:22 10° NE
USA 238 3.7 05:36:40 11° SW 05:43:25 86° NW 05:50:29 10° NE
Cosmos 1844 Rocket 2.8 05:37:47 10° SSW 05:43:27 81° ESE 05:49:10 10° NNE
Meteor 1-4 Rocket 3.3 05:44:16 10° NNW 05:47:19 29° W 05:50:20 10° SSW
Meteor 1-31 Rocket 2.7 05:45:29 10° NNE 05:49:23 88° W 05:53:14 10° SSW
BREEZE-M R/B 4.3 05:48:19 17° SW 05:50:54 78° SSE 06:03:40 10° ENE
Cosmos 1743 3.8 05:48:33 10° NW 05:51:44 24° W 05:54:54 10° SW
Cosmos 2263 Rocket 3.4 05:50:24 16° W 05:53:28 25° NW 05:58:06 10° N
Cosmos 1536 Rocket 4.0 05:50:35 10° SSW 05:54:41 40° WNW 05:58:50 10° N
Lacrosse 5 rocket 3.3 05:51:49 10° NNW 05:54:47 21° NNE 05:57:39 10° ENE
SKYMED 2 4.4 05:52:23 10° SSE 05:56:38 56° ENE 06:00:54 10° N
Okean-O 3.5 05:52:25 10° NNE 05:56:47 54° E 06:01:07 10° S
Meteor PRIRODA 3.7 05:53:55 10° N 05:57:33 57° WNW 06:01:12 10° SSW
Cosmos 304 Rocket 3.8 05:53:32 10° NNW 05:58:17 59° WSW 06:03:01 10° S
Meteor 1-15 Rocket 4.2 05:55:12 10° NNW 06:00:51 83° W 06:06:25 10° S
Meteor 1-23 Rocket 4.2 05:56:55 10° SSW 06:02:29 83° W 06:08:07 10° N
Okean 2 3.5 06:01:43 10° S 06:05:48 82° E 06:09:56 10° N
Cosmos 2082 Rocket 4.0 06:00:49 10° NNW 06:06:02 34° NE 06:11:12 10° ESE
Meteor 1-28 Rocket 3.1 06:05:55 10° S 06:09:37 68° W 06:13:24 10° NNW
ATLAS 5 CENTAUR R/B 2.4 06:05:40 10° NW 06:11:35 69° WSW 06:18:05 10° SSE
NOAA 6 4.4 06:06:28 10° NNE 06:11:42 73° ESE 06:16:52 10° S
Cosmos 1745 Rocket 4.1 06:06:24 10° NNW 06:12:36 56° W 06:18:44 10° SSW
ATLAS 3B R/B 3.1 06:10:01 10° WSW 06:17:10 52° NW 06:24:03 10° NNE
Cosmos 1025 Rocket 2.9 06:13:05 10° SSW 06:17:20 68° W 06:21:38 10° N
USA 116 3.7 06:14:49 10° SSW 06:17:44 34° W 06:20:37 10° NNW
NOSS 3-2 (C) 3.8 06:14:04 10° SSW 06:20:01 73° ESE 06:26:38 10° NE
Atlas Centaur 2 4.1 06:18:04 10° SW 06:20:32 13° SSW 06:22:49 10° S
Cosmos 1553 Rocket 4.3 06:14:46 10° SSW 06:20:35 45° WNW 06:26:23 10° N
Cosmos 2292 Rocket 4.2 06:16:36 10° NNW 06:21:18 58° W 06:27:34 10° S
Cosmos 836 Rocket 4.5 06:17:28 10° NNW 06:22:39 66° WSW 06:27:47 10° S
CZ-2C R/B 4.0 06:20:35 10° NNE 06:24:55 39° E 06:29:19 10° SSE
Cosmos 2315 Rocket 4.3 06:18:55 10° S 06:25:09 76° E 06:31:29 10° NNE
Cosmos 2228 3.9 06:21:29 10° N 06:25:41 54° ENE 06:29:50 10° SSE
Okean O Rocket 2.9 06:22:31 10° NNW 06:25:47 21° WNW 06:29:02 10° WSW
Okean 1-7 Rocket 3.7 06:21:23 10° SSW 06:25:52 64° W 06:30:25 10° N
GEOS 3 Rocket 3.7 06:21:33 10° SE 06:26:46 81° SW 06:32:06 10° NW
ATLAS CENTAUR R/B 1.2 06:24:25 10° SSW 06:28:18 87° SE 06:32:03 10° NE
CENTAUR R/B 4.4 06:25:03 10° S 06:30:23 34° ESE 06:36:21 10° NE
